| time (UTC) | temp C | wind direction | speed KPH | gust KPH | rain 1hr cm | rain 24hr cm | rain mn cm | humidity % | barometer mb |
| 20260510231055 | 23 | 5 | 6.4 | 16.1 | 0.00 | 0.15 | 0.15 | 57 | 1014.2 |
| 20260510230553 | 23 | 9 | 9.7 | 14.5 | 0.00 | 0.15 | 0.15 | 57 | 1014.1 |
| 20260510230049 | 23 | 304 | 8.0 | 14.5 | 0.00 | 0.15 | 0.15 | 56 | 1014.1 |
| 20260510225548 | 23 | 341 | 8.0 | 11.3 | 0.00 | 0.15 | 0.15 | 57 | 1014.0 |
| 20260510225048 | 23 | 360 | 4.8 | 14.5 | 0.00 | 0.15 | 0.15 | 58 | 1014.1 |
| 20260510224551 | 23 | 355 | 9.7 | 14.5 | 0.00 | 0.15 | 0.15 | 58 | 1014.0 |
| 20260510224047 | 23 | 360 | 6.4 | 12.9 | 0.00 | 0.15 | 0.15 | 59 | 1013.9 |
| 20260510223547 | 23 | 297 | 8.0 | 12.9 | 0.00 | 0.15 | 0.15 | 59 | 1013.9 |
| 20260510223054 | 22 | 279 | 3.2 | 12.9 | 0.00 | 0.15 | 0.15 | 60 | 1014.0 |
| 20260510222548 | 22 | 301 | 3.2 | 12.9 | 0.00 | 0.15 | 0.15 | 61 | 1014.1 |
| 20260510222048 | 22 | 22 | 4.8 | 12.9 | 0.00 | 0.15 | 0.15 | 61 | 1014.0 |
| 20260510221546 | 22 | 81 | 9.7 | 12.9 | 0.00 | 0.15 | 0.15 | 61 | 1013.9 |
| 20260510221045 | 22 | 54 | 6.4 | 16.1 | 0.00 | 0.15 | 0.15 | 61 | 1014.0 |
| 20260510220547 | 22 | 28 | 6.4 | 17.7 | 0.00 | 0.15 | 0.15 | 61 | 1013.9 |
| 20260510220045 | 23 | 320 | 9.7 | 19.3 | 0.00 | 0.15 | 0.15 | 60 | 1014.0 |
| 20260510215545 | 23 | 29 | 9.7 | 19.3 | 0.00 | 0.15 | 0.15 | 60 | 1013.9 |
| 20260510215046 | 23 | 330 | 8.0 | 20.9 | 0.00 | 0.15 | 0.15 | 60 | 1013.9 |
| 20260510215043 | 23 | 27 | 8.0 | 20.9 | 0.00 | 0.15 | 0.15 | 60 | 1013.9 |
| 20260510214544 | 23 | 66 | 11.3 | 20.9 | 0.00 | 0.15 | 0.15 | 61 | 1014.0 |
| 20260510214044 | 23 | 355 | 12.9 | 19.3 | 0.00 | 0.15 | 0.15 | 60 | 1013.7 |
| 20260510213543 | 23 | 36 | 9.7 | 17.7 | 0.00 | 0.15 | 0.15 | 60 | 1013.5 |
| 20260510213047 | 23 | 5 | 8.0 | 16.1 | 0.00 | 0.15 | 0.15 | 59 | 1013.5 |
| 20260510212542 | 23 | 306 | 9.7 | 17.7 | 0.00 | 0.15 | 0.15 | 60 | 1013.6 |
| 20260510212044 | 23 | 360 | 9.7 | 17.7 | 0.00 | 0.15 | 0.15 | 60 | 1013.5 |
| 20260510211516 | 23 | 347 | 9.7 | 16.1 | 0.00 | 0.15 | 0.15 | 60 | 1013.5 |
| 20260510211013 | 24 | 321 | 8.0 | 14.5 | 0.00 | 0.15 | 0.15 | 60 | 1013.5 |
| 20260510210512 | 24 | 302 | 8.0 | 14.5 | 0.00 | 0.15 | 0.15 | 59 | 1013.3 |
| 20260510210015 | 23 | 360 | 9.7 | 12.9 | 0.00 | 0.15 | 0.15 | 60 | 1013.2 |
| 20260510205512 | 23 | 9 | 4.8 | 12.9 | 0.00 | 0.15 | 0.15 | 62 | 1013.2 |
| 20260510205012 | 23 | 336 | 8.0 | 14.5 | 0.00 | 0.15 | 0.15 | 62 | 1013.2 |
| 20260510204513 | 23 | 94 | 9.7 | 16.1 | 0.00 | 0.15 | 0.15 | 61 | 1013.2 |
| 20260510204009 | 23 | 355 | 9.7 | 17.7 | 0.00 | 0.15 | 0.15 | 61 | 1013.2 |
| 20260510203509 | 23 | 17 | 4.8 | 20.9 | 0.00 | 0.15 | 0.15 | 61 | 1013.2 |
| 20260510203016 | 23 | 21 | 9.7 | 19.3 | 0.00 | 0.15 | 0.15 | 60 | 1013.2 |
| 20260510202509 | 23 | 5 | 8.0 | 17.7 | 0.03 | 0.15 | 0.15 | 59 | 1013.2 |
| 20260510202009 | 24 | 5 | 12.9 | 17.7 | 0.03 | 0.15 | 0.15 | 59 | 1013.2 |
| 20260510201508 | 24 | 5 | 3.2 | 14.5 | 0.03 | 0.15 | 0.15 | 60 | 1013.2 |
| 20260510201010 | 24 | 332 | 8.0 | 16.1 | 0.03 | 0.15 | 0.15 | 60 | 1013.2 |
| 20260510200509 | 24 | 329 | 8.0 | 16.1 | 0.03 | 0.15 | 0.15 | 59 | 1013.3 |
| 20260510200009 | 24 | 312 | 4.8 | 11.3 | 0.03 | 0.15 | 0.15 | 59 | 1013.3 |
| 20260510195508 | 24 | 306 | 3.2 | 11.3 | 0.03 | 0.15 | 0.15 | 59 | 1013.3 |
| 20260510195011 | 24 | 299 | 6.4 | 12.9 | 0.03 | 0.15 | 0.15 | 59 | 1013.4 |
| 20260510194506 | 24 | 259 | 1.6 | 16.1 | 0.03 | 0.15 | 0.15 | 58 | 1013.4 |
| 20260510194006 | 25 | 267 | 9.7 | 16.1 | 0.03 | 0.15 | 0.15 | 57 | 1013.4 |
| 20260510193505 | 25 | 360 | 6.4 | 20.9 | 0.03 | 0.15 | 0.15 | 58 | 1013.5 |
| 20260510193006 | 24 | 321 | 11.3 | 20.9 | 0.05 | 0.15 | 0.15 | 60 | 1013.5 |
| 20260510192505 | 24 | 355 | 3.2 | 11.3 | 0.13 | 0.13 | 0.13 | 61 | 1013.5 |
| 20260510192005 | 24 | 19 | 3.2 | 11.3 | 0.13 | 0.13 | 0.13 | 63 | 1013.5 |
| 20260510191506 | 23 | 229 | 0.0 | 8.0 | 0.13 | 0.13 | 0.13 | 70 | 1013.5 |
| 20260510191005 | 23 | 229 | 3.2 | 11.3 | 0.13 | 0.13 | 0.13 | 66 | 1013.5 |
| 20260510190504 | 23 | 300 | 3.2 | 11.3 | 0.13 | 0.13 | 0.13 | 64 | 1013.6 |
| 20260510190011 | 23 | 237 | 3.2 | 8.0 | 0.13 | 0.13 | 0.13 | 70 | 1013.6 |
| 20260510185504 | 22 | 289 | 3.2 | 8.0 | 0.13 | 0.13 | 0.13 | 74 | 1013.7 |
| 20260510185004 | 21 | 250 | 3.2 | 6.4 | 0.13 | 0.13 | 0.13 | 80 | 1013.7 |
| 20260510184534 | 21 | 223 | 0.0 | 14.5 | 0.13 | 0.13 | 0.13 | 79 | 1013.7 |
| 20260510184034 | 21 | 217 | 6.4 | 17.7 | 0.13 | 0.13 | 0.13 | 72 | 1013.7 |
| 20260510183534 | 21 | 219 | 9.7 | 14.5 | 0.13 | 0.13 | 0.13 | 70 | 1013.9 |
| 20260510183033 | 22 | 254 | 8.0 | 14.5 | 0.10 | 0.10 | 0.10 | 65 | 1013.8 |
| 20260510182534 | 23 | 257 | 8.0 | 14.5 | 0.00 | 0.00 | 0.00 | 62 | 1013.6 |
| 20260510182032 | 23 | 325 | 6.4 | 17.7 | 0.00 | 0.00 | 0.00 | 59 | 1013.7 |
| 20260510181531 | 23 | 306 | 11.3 | 17.7 | 0.00 | 0.00 | 0.00 | 59 | 1013.7 |
| 20260510181029 | 23 | 5 | 9.7 | 16.1 | 0.00 | 0.00 | 0.00 | 59 | 1013.7 |
| 20260510180530 | 23 | 360 | 8.0 | 14.5 | 0.00 | 0.00 | 0.00 | 58 | 1013.6 |
| 20260510180032 | 23 | 355 | 4.8 | 14.5 | 0.00 | 0.00 | 0.00 | 58 | 1013.6 |
| 20260510175528 | 24 | 29 | 4.8 | 11.3 | 0.00 | 0.00 | 0.00 | 56 | 1013.6 |
| 20260510175029 | 24 | 270 | 1.6 | 19.3 | 0.00 | 0.00 | 0.00 | 56 | 1013.7 |
| 20260510174528 | 25 | 338 | 9.7 | 20.9 | 0.00 | 0.00 | 0.00 | 55 | 1013.7 |
| 20260510174028 | 25 | 311 | 9.7 | 20.9 | 0.00 | 0.00 | 0.00 | 55 | 1013.7 |
| 20260510173527 | 25 | 315 | 14.5 | 20.9 | 0.00 | 0.00 | 0.00 | 54 | 1013.6 |
| 20260510173029 | 25 | 223 | 9.7 | 16.1 | 0.00 | 0.00 | 0.00 | 54 | 1013.6 |
| 20260510172527 | 25 | 252 | 6.4 | 16.1 | 0.00 | 0.00 | 0.00 | 54 | 1013.6 |
| 20260510172028 | 24 | 255 | 11.3 | 17.7 | 0.00 | 0.00 | 0.00 | 55 | 1013.6 |
| 20260510171528 | 24 | 242 | 6.4 | 17.7 | 0.00 | 0.00 | 0.00 | 55 | 1013.5 |
| 20260510171025 | 25 | 244 | 9.7 | 19.3 | 0.00 | 0.00 | 0.00 | 54 | 1013.6 |
| 20260510170525 | 25 | 278 | 8.0 | 16.1 | 0.00 | 0.00 | 0.00 | 53 | 1013.6 |
| 20260510170023 | 25 | 321 | 8.0 | 14.5 | 0.00 | 0.00 | 0.00 | 54 | 1013.6 |
| 20260510165522 | 24 | 259 | 9.7 | 14.5 | 0.00 | 0.00 | 0.00 | 56 | 1013.6 |
| 20260510165021 | 24 | 304 | 6.4 | 12.9 | 0.00 | 0.00 | 0.00 | 56 | 1013.7 |
| 20260510164521 | 23 | 321 | 6.4 | 14.5 | 0.00 | 0.00 | 0.00 | 57 | 1013.7 |
| 20260510164019 | 23 | 311 | 8.0 | 14.5 | 0.00 | 0.00 | 0.00 | 58 | 1013.6 |
| 20260510163519 | 22 | 279 | 6.4 | 12.9 | 0.00 | 0.00 | 0.00 | 59 | 1013.7 |
| 20260510163019 | 22 | 275 | 4.8 | 12.9 | 0.00 | 0.00 | 0.00 | 61 | 1013.7 |
| 20260510162518 | 22 | 315 | 8.0 | 12.9 | 0.00 | 0.00 | 0.00 | 61 | 1013.7 |
| 20260510162019 | 22 | 250 | 8.0 | 16.1 | 0.00 | 0.00 | 0.00 | 60 | 1013.9 |
| 20260510161524 | 22 | 311 | 8.0 | 14.5 | 0.00 | 0.00 | 0.00 | 60 | 1013.9 |
| 20260510161018 | 22 | 286 | 8.0 | 16.1 | 0.00 | 0.00 | 0.00 | 59 | 1013.9 |
| 20260510160514 | 23 | 319 | 11.3 | 16.1 | 0.00 | 0.00 | 0.00 | 57 | 1013.8 |
| 20260510160018 | 23 | 321 | 9.7 | 19.3 | 0.00 | 0.00 | 0.00 | 56 | 1013.8 |
| 20260510155513 | 23 | 307 | 14.5 | 19.3 | 0.00 | 0.00 | 0.00 | 56 | 1013.7 |
| 20260510155012 | 23 | 360 | 6.4 | 14.5 | 0.00 | 0.00 | 0.00 | 57 | 1013.6 |
| 20260510154510 | 23 | 259 | 6.4 | 14.5 | 0.00 | 0.00 | 0.00 | 59 | 1013.6 |
| 20260510154009 | 22 | 279 | 3.2 | 14.5 | 0.00 | 0.00 | 0.00 | 60 | 1013.6 |
| 20260510153507 | 22 | 309 | 8.0 | 12.9 | 0.00 | 0.00 | 0.00 | 60 | 1013.6 |
| 20260510153007 | 21 | 293 | 8.0 | 12.9 | 0.00 | 0.00 | 0.00 | 62 | 1013.7 |
| 20260510152506 | 21 | 285 | 6.4 | 11.3 | 0.00 | 0.00 | 0.00 | 63 | 1013.7 |
| 20260510152005 | 21 | 290 | 4.8 | 14.5 | 0.00 | 0.00 | 0.00 | 63 | 1013.6 |
| 20260510151518 | 21 | 254 | 8.0 | 14.5 | 0.00 | 0.00 | 0.00 | 62 | 1013.6 |
| 20260510151004 | 21 | 261 | 4.8 | 12.9 | 0.00 | 0.00 | 0.00 | 62 | 1013.6 |
| 20260510150503 | 21 | 242 | 6.4 | 16.1 | 0.00 | 0.00 | 0.00 | 62 | 1013.6 |
| 20260510150003 | 21 | 267 | 8.0 | 24.1 | 0.00 | 0.00 | 0.00 | 62 | 1013.5 |
| 20260510145502 | 22 | 256 | 11.3 | 24.1 | 0.00 | 0.00 | 0.00 | 62 | 1013.5 |
| 20260510145002 | 21 | 254 | 6.4 | 14.5 | 0.00 | 0.00 | 0.00 | 62 | 1013.6 |
| 20260510144502 | 21 | 239 | 4.8 | 14.5 | 0.00 | 0.00 | 0.00 | 63 | 1013.5 |
| 20260510144104 | 21 | 227 | 6.4 | 16.1 | 0.00 | 0.00 | 0.00 | 64 | 1013.5 |
| 20260510143600 | 21 | 252 | 8.0 | 16.1 | 0.00 | 0.00 | 0.00 | 63 | 1013.4 |
| 20260510143100 | 21 | 236 | 9.7 | 16.1 | 0.00 | 0.00 | 0.00 | 63 | 1013.4 |
| 20260510142600 | 21 | 228 | 4.8 | 16.1 | 0.00 | 0.00 | 0.00 | 63 | 1013.4 |
| 20260510142059 | 21 | 216 | 6.4 | 14.5 | 0.00 | 0.00 | 0.00 | 64 | 1013.3 |
| 20260510141603 | 21 | 258 | 8.0 | 14.5 | 0.00 | 0.00 | 0.00 | 64 | 1013.5 |
| 20260510141055 | 20 | 241 | 6.4 | 16.1 | 0.00 | 0.00 | 0.00 | 65 | 1013.6 |
| 20260510140553 | 20 | 219 | 9.7 | 16.1 | 0.00 | 0.00 | 0.00 | 64 | 1013.6 |
| 20260510140054 | 20 | 285 | 3.2 | 16.1 | 0.00 | 0.00 | 0.00 | 65 | 1013.5 |
| 20260510135552 | 20 | 252 | 8.0 | 17.7 | 0.00 | 0.00 | 0.00 | 63 | 1013.6 |
| 20260510135052 | 20 | 259 | 8.0 | 16.1 | 0.00 | 0.00 | 0.00 | 65 | 1013.7 |
| 20260510134559 | 20 | 206 | 3.2 | 14.5 | 0.00 | 0.00 | 0.00 | 66 | 1013.5 |
| 20260510134049 | 20 | 234 | 3.2 | 14.5 | 0.00 | 0.00 | 0.00 | 67 | 1013.5 |
| 20260510133547 | 19 | 234 | 8.0 | 14.5 | 0.00 | 0.00 | 0.00 | 67 | 1013.5 |
| 20260510133049 | 19 | 219 | 6.4 | 19.3 | 0.00 | 0.00 | 0.00 | 68 | 1013.3 |
| 20260510132544 | 18 | 227 | 9.7 | 19.3 | 0.00 | 0.00 | 0.00 | 68 | 1013.4 |
| 20260510132045 | 18 | 215 | 8.0 | 17.7 | 0.00 | 0.00 | 0.00 | 69 | 1013.5 |
| 20260510131544 | 18 | 230 | 8.0 | 17.7 | 0.00 | 0.00 | 0.00 | 69 | 1013.4 |
| 20260510131041 | 18 | 278 | 9.7 | 16.1 | 0.00 | 0.00 | 0.00 | 69 | 1013.5 |
| 20260510130537 | 18 | 279 | 8.0 | 16.1 | 0.00 | 0.00 | 0.00 | 70 | 1013.5 |
| 20260510130035 | 18 | 282 | 8.0 | 14.5 | 0.00 | 0.00 | 0.00 | 71 | 1013.5 |
| 20260510125535 | 18 | 240 | 8.0 | 12.9 | 0.00 | 0.00 | 0.00 | 71 | 1013.4 |
| 20260510125033 | 17 | 246 | 8.0 | 12.9 | 0.00 | 0.00 | 0.00 | 72 | 1013.3 |
| 20260510124534 | 17 | 265 | 6.4 | 16.1 | 0.00 | 0.00 | 0.00 | 72 | 1013.4 |
| 20260510124032 | 17 | 215 | 9.7 | 16.1 | 0.00 | 0.00 | 0.00 | 72 | 1013.5 |
| 20260510123531 | 17 | 282 | 8.0 | 17.7 | 0.00 | 0.00 | 0.00 | 73 | 1013.4 |
| 20260510123031 | 17 | 264 | 8.0 | 17.7 | 0.00 | 0.00 | 0.00 | 73 | 1013.4 |
| 20260510122528 | 17 | 220 | 3.2 | 17.7 | 0.00 | 0.00 | 0.00 | 74 | 1013.2 |
| 20260510122027 | 17 | 242 | 8.0 | 17.7 | 0.00 | 0.00 | 0.00 | 74 | 1013.1 |
| 20260510121530 | 17 | 226 | 9.7 | 16.1 | 0.00 | 0.00 | 0.00 | 74 | 1013.1 |
| 20260510121026 | 17 | 286 | 6.4 | 11.3 | 0.00 | 0.00 | 0.00 | 75 | 1012.9 |
| 20260510120521 | 16 | 277 | 4.8 | 8.0 | 0.00 | 0.00 | 0.00 | 76 | 1012.9 |
| 20260510120018 | 16 | 238 | 1.6 | 11.3 | 0.00 | 0.00 | 0.00 | 78 | 1012.8 |
| 20260510115518 | 16 | 228 | 4.8 | 12.9 | 0.00 | 0.00 | 0.00 | 79 | 1012.9 |
| 20260510115019 | 16 | 269 | 3.2 | 16.1 | 0.00 | 0.00 | 0.00 | 78 | 1012.9 |
| 20260510114519 | 16 | 282 | 4.8 | 9.7 | 0.00 | 0.00 | 0.00 | 79 | 1012.8 |
| 20260510114015 | 15 | 291 | 4.8 | 9.7 | 0.00 | 0.00 | 0.00 | 79 | 1012.7 |
| 20260510113511 | 15 | 232 | 1.6 | 17.7 | 0.00 | 0.00 | 0.00 | 80 | 1012.6 |
| 20260510113011 | 15 | 212 | 9.7 | 17.7 | 0.00 | 0.00 | 0.00 | 81 | 1012.5 |
| 20260510112509 | 15 | 288 | 1.6 | 12.9 | 0.00 | 0.00 | 0.00 | 82 | 1012.5 |
| 20260510112008 | 15 | 269 | 4.8 | 12.9 | 0.00 | 0.00 | 0.00 | 82 | 1012.5 |
| 20260510111505 | 15 | 286 | 3.2 | 8.0 | 0.00 | 0.00 | 0.00 | 83 | 1012.6 |
| 20260510111005 | 14 | 285 | 3.2 | 8.0 | 0.00 | 0.00 | 0.00 | 83 | 1012.4 |
| 20260510110533 | 14 | 271 | 3.2 | 8.0 | 0.00 | 0.00 | 0.00 | 84 | 1012.3 |
| 20260510110037 | 14 | 308 | 1.6 | 8.0 | 0.00 | 0.00 | 0.00 | 85 | 1012.1 |
| 20260510105534 | 13 | 290 | 0.0 | 9.7 | 0.00 | 0.00 | 0.00 | 85 | 1012.0 |
| 20260510105032 | 13 | 290 | 3.2 | 9.7 | 0.00 | 0.00 | 0.00 | 86 | 1012.1 |
| 20260510104529 | 13 | 286 | 0.0 | 9.7 | 0.00 | 0.00 | 0.00 | 86 | 1012.0 |
| 20260510104028 | 13 | 291 | 1.6 | 9.7 | 0.00 | 0.00 | 0.00 | 87 | 1012.0 |
| 20260510103526 | 13 | 17 | 0.0 | 0.0 | 0.00 | 0.00 | 0.00 | 87 | 1011.9 |
| 20260510103024 | 13 | 24 | 0.0 | 0.0 | 0.00 | 0.00 | 0.00 | 87 | 1011.8 |
| 20260510102523 | 13 | 24 | 0.0 | 0.0 | 0.00 | 0.00 | 0.00 | 87 | 1011.8 |
| 20260510102023 | 13 | 24 | 0.0 | 0.0 | 0.00 | 0.00 | 0.00 | 86 | 1011.7 |
| 20260510101523 | 13 | 25 | 0.0 | 0.0 | 0.00 | 0.00 | 0.00 | 86 | 1011.6 |
| 20260510101026 | 13 | 24 | 0.0 | 0.0 | 0.00 | 0.00 | 0.00 | 86 | 1011.7 |
| 20260510100522 | 13 | 24 | 0.0 | 0.0 | 0.00 | 0.00 | 0.00 | 85 | 1011.7 |
| 20260510100030 | 13 | 24 | 0.0 | 0.0 | 0.00 | 0.00 | 0.00 | 85 | 1011.7 |
| 20260510095520 | 13 | 24 | 0.0 | 0.0 | 0.00 | 0.00 | 0.00 | 85 | 1011.7 |
| 20260510095019 | 13 | 24 | 0.0 | 0.0 | 0.00 | 0.00 | 0.00 | 85 | 1011.8 |
| 20260510094526 | 13 | 24 | 0.0 | 0.0 | 0.00 | 0.00 | 0.00 | 84 | 1011.7 |
| 20260510094017 | 13 | 24 | 0.0 | 0.0 | 0.00 | 0.00 | 0.00 | 84 | 1011.4 |
| 20260510093521 | 13 | 24 | 0.0 | 0.0 | 0.00 | 0.00 | 0.00 | 84 | 1011.3 |
| 20260510093014 | 13 | 24 | 0.0 | 0.0 | 0.00 | 0.00 | 0.00 | 84 | 1011.3 |
| 20260510092513 | 13 | 24 | 0.0 | 0.0 | 0.00 | 0.00 | 0.00 | 83 | 1011.1 |
| 20260510092014 | 14 | 24 | 0.0 | 0.0 | 0.00 | 0.00 | 0.00 | 83 | 1011.1 |
| 20260510091510 | 14 | 24 | 0.0 | 0.0 | 0.00 | 0.00 | 0.00 | 83 | 1011.2 |
| 20260510091011 | 14 | 24 | 0.0 | 0.0 | 0.00 | 0.00 | 0.00 | 83 | 1011.1 |
| 20260510090509 | 14 | 25 | 0.0 | 0.0 | 0.00 | 0.00 | 0.00 | 83 | 1011.0 |
| 20260510090008 | 14 | 25 | 0.0 | 0.0 | 0.00 | 0.00 | 0.00 | 83 | 1011.0 |
| 20260510085509 | 14 | 25 | 0.0 | 0.0 | 0.00 | 0.00 | 0.00 | 83 | 1011.0 |
| 20260510085008 | 14 | 25 | 0.0 | 1.6 | 0.00 | 0.00 | 0.00 | 83 | 1010.9 |
| 20260510084507 | 14 | 25 | 0.0 | 6.4 | 0.00 | 0.00 | 0.00 | 83 | 1010.9 |
| 20260510084007 | 15 | 63 | 0.0 | 4.8 | 0.00 | 0.00 | 0.00 | 83 | 1010.8 |
| 20260510083508 | 15 | 304 | 1.6 | 8.0 | 0.00 | 0.00 | 0.00 | 83 | 1010.8 |
| 20260510083013 | 15 | 309 | 3.2 | 9.7 | 0.00 | 0.00 | 0.00 | 83 | 1010.8 |
| 20260510082505 | 15 | 310 | 4.8 | 9.7 | 0.00 | 0.00 | 0.00 | 82 | 1010.7 |
| 20260510082004 | 15 | 294 | 0.0 | 0.0 | 0.00 | 0.00 | 0.00 | 82 | 1010.6 |
| 20260510081504 | 15 | 303 | 0.0 | 0.0 | 0.00 | 0.00 | 0.00 | 82 | 1010.6 |
| 20260510081007 | 15 | 303 | 0.0 | 0.0 | 0.00 | 0.00 | 0.00 | 82 | 1010.6 |
| 20260510080506 | 15 | 303 | 0.0 | 0.0 | 0.00 | 0.00 | 0.00 | 82 | 1010.6 |
| 20260510080003 | 15 | 302 | 0.0 | 6.4 | 0.00 | 0.00 | 0.00 | 81 | 1010.6 |
| 20260510075507 | 15 | 303 | 0.0 | 6.4 | 0.00 | 0.00 | 0.00 | 81 | 1010.5 |
| 20260510075006 | 15 | 303 | 3.2 | 6.4 | 0.00 | 0.00 | 0.00 | 81 | 1010.5 |
| 20260510074504 | 15 | 304 | 4.8 | 6.4 | 0.00 | 0.00 | 0.00 | 80 | 1010.4 |
| 20260510074006 | 15 | 308 | 3.2 | 8.0 | 0.00 | 0.00 | 0.00 | 80 | 1010.3 |
| 20260510073503 | 15 | 309 | 3.2 | 8.0 | 0.00 | 0.00 | 0.00 | 79 | 1010.3 |
| 20260510073003 | 15 | 305 | 1.6 | 4.8 | 0.00 | 0.00 | 0.00 | 79 | 1010.4 |
| 20260510072502 | 16 | 306 | 3.2 | 6.4 | 0.00 | 0.00 | 0.00 | 78 | 1010.4 |
| 20260510072002 | 16 | 308 | 1.6 | 6.4 | 0.00 | 0.00 | 0.00 | 78 | 1010.3 |
| 20260510071501 | 16 | 311 | 3.2 | 8.0 | 0.00 | 0.00 | 0.00 | 77 | 1010.3 |
| 20260510071100 | 16 | 275 | 3.2 | 11.3 | 0.00 | 0.00 | 0.00 | 77 | 1010.3 |
| 20260510070602 | 16 | 285 | 6.4 | 11.3 | 0.00 | 0.00 | 0.00 | 77 | 1010.3 |
| 20260510070502 | 16 | 269 | 6.4 | 12.9 | 0.00 | 0.00 | 0.00 | 77 | 1010.3 |
| 20260510070112 | 16 | 275 | 3.2 | 12.9 | 0.00 | 0.00 | 0.00 | 77 | 1010.3 |
| 20260510065601 | 16 | 279 | 6.4 | 12.9 | 0.00 | 0.00 | 0.00 | 77 | 1010.3 |
| 20260510065059 | 16 | 255 | 3.2 | 9.7 | 0.00 | 0.00 | 0.00 | 77 | 1010.3 |
| 20260510064603 | 16 | 286 | 3.2 | 12.9 | 0.00 | 0.00 | 0.00 | 77 | 1010.3 |
| 20260510064059 | 16 | 264 | 6.4 | 12.9 | 0.00 | 0.00 | 0.00 | 77 | 1010.3 |
| 20260510063559 | 16 | 296 | 3.2 | 8.0 | 0.00 | 0.00 | 0.00 | 78 | 1010.3 |
| 20260510063101 | 16 | 287 | 1.6 | 8.0 | 0.00 | 0.00 | 0.00 | 78 | 1010.3 |
| 20260510062558 | 16 | 279 | 3.2 | 12.9 | 0.00 | 0.00 | 0.00 | 78 | 1010.4 |
| 20260510062057 | 16 | 286 | 4.8 | 12.9 | 0.00 | 0.00 | 0.00 | 78 | 1010.3 |
| 20260510061557 | 16 | 303 | 3.2 | 9.7 | 0.00 | 0.00 | 0.00 | 78 | 1010.5 |
| 20260510061057 | 16 | 279 | 1.6 | 9.7 | 0.00 | 0.00 | 0.00 | 79 | 1010.4 |
| 20260510060557 | 16 | 284 | 3.2 | 8.0 | 0.00 | 0.00 | 0.00 | 79 | 1010.4 |
| 20260510060059 | 16 | 333 | 0.0 | 8.0 | 0.00 | 0.00 | 0.00 | 80 | 1010.4 |
| 20260510055556 | 16 | 360 | 1.6 | 8.0 | 0.00 | 0.00 | 0.00 | 80 | 1010.5 |
| 20260510055056 | 16 | 313 | 1.6 | 6.4 | 0.00 | 0.00 | 0.00 | 80 | 1010.4 |
| 20260510054602 | 16 | 319 | 0.0 | 6.4 | 0.00 | 0.00 | 0.00 | 80 | 1010.4 |
| 20260510054056 | 16 | 293 | 0.0 | 0.0 | 0.00 | 0.00 | 0.00 | 80 | 1010.4 |
| 20260510053557 | 16 | 294 | 0.0 | 0.0 | 0.00 | 0.00 | 0.00 | 80 | 1010.4 |
| 20260510053053 | 16 | 293 | 0.0 | 0.0 | 0.00 | 0.00 | 0.00 | 80 | 1010.4 |
| 20260510052552 | 16 | 294 | 0.0 | 0.0 | 0.00 | 0.00 | 0.00 | 79 | 1010.5 |
| 20260510052053 | 16 | 296 | 0.0 | 0.0 | 0.00 | 0.00 | 0.00 | 79 | 1010.5 |
| 20260510051553 | 16 | 296 | 0.0 | 0.0 | 0.00 | 0.00 | 0.00 | 79 | 1010.6 |
| 20260510051054 | 16 | 296 | 0.0 | 0.0 | 0.00 | 0.00 | 0.00 | 78 | 1010.6 |
| 20260510050552 | 16 | 296 | 0.0 | 0.0 | 0.00 | 0.00 | 0.00 | 78 | 1010.7 |
| 20260510050052 | 16 | 302 | 0.0 | 0.0 | 0.00 | 0.00 | 0.00 | 78 | 1010.7 |
| 20260510045554 | 16 | 345 | 0.0 | 0.0 | 0.00 | 0.00 | 0.00 | 78 | 1010.7 |
| 20260510045051 | 16 | 299 | 0.0 | 1.6 | 0.00 | 0.00 | 0.00 | 77 | 1010.8 |
| 20260510044600 | 16 | 299 | 0.0 | 6.4 | 0.00 | 0.00 | 0.00 | 77 | 1010.8 |
| 20260510044053 | 16 | 289 | 1.6 | 8.0 | 0.00 | 0.00 | 0.00 | 77 | 1010.8 |
| 20260510043553 | 16 | 275 | 0.0 | 6.4 | 0.00 | 0.00 | 0.00 | 77 | 1010.8 |
| 20260510043052 | 16 | 307 | 1.6 | 8.0 | 0.00 | 0.00 | 0.00 | 76 | 1010.8 |
| 20260510042549 | 16 | 309 | 4.8 | 8.0 | 0.00 | 0.00 | 0.00 | 76 | 1010.8 |
| 20260510042053 | 17 | 291 | 1.6 | 4.8 | 0.00 | 0.00 | 0.00 | 76 | 1010.8 |
| 20260510041556 | 17 | 273 | 0.0 | 6.4 | 0.00 | 0.00 | 0.00 | 75 | 1010.7 |
| 20260510041049 | 17 | 273 | 0.0 | 6.4 | 0.00 | 0.00 | 0.00 | 75 | 1010.7 |
| 20260510040551 | 17 | 243 | 3.2 | 11.3 | 0.00 | 0.00 | 0.00 | 75 | 1010.7 |
| 20260510040049 | 17 | 257 | 4.8 | 9.7 | 0.00 | 0.00 | 0.00 | 75 | 1010.8 |
| 20260510035548 | 17 | 233 | 4.8 | 9.7 | 0.00 | 0.00 | 0.00 | 74 | 1010.8 |
| 20260510035049 | 17 | 242 | 3.2 | 11.3 | 0.00 | 0.00 | 0.00 | 74 | 1010.8 |
| 20260510034549 | 17 | 302 | 3.2 | 11.3 | 0.00 | 0.00 | 0.00 | 74 | 1010.8 |
| 20260510034047 | 17 | 268 | 4.8 | 11.3 | 0.00 | 0.00 | 0.00 | 74 | 1010.9 |
| 20260510033547 | 17 | 218 | 4.8 | 11.3 | 0.00 | 0.00 | 0.00 | 74 | 1010.8 |
| 20260510033107 | 17 | 246 | 3.2 | 12.9 | 0.00 | 0.00 | 0.00 | 73 | 1010.8 |
| 20260510032548 | 17 | 257 | 3.2 | 11.3 | 0.00 | 0.00 | 0.00 | 73 | 1010.8 |
| 20260510032045 | 17 | 226 | 4.8 | 14.5 | 0.00 | 0.00 | 0.00 | 73 | 1010.7 |
| 20260510031547 | 17 | 209 | 9.7 | 14.5 | 0.00 | 0.00 | 0.00 | 73 | 1010.7 |
| 20260510031044 | 17 | 290 | 6.4 | 14.5 | 0.00 | 0.00 | 0.00 | 73 | 1010.7 |
| 20260510030543 | 18 | 224 | 6.4 | 12.9 | 0.00 | 0.00 | 0.00 | 72 | 1010.7 |
| 20260510030043 | 18 | 229 | 8.0 | 14.5 | 0.00 | 0.00 | 0.00 | 72 | 1010.7 |
| 20260510025542 | 18 | 241 | 6.4 | 14.5 | 0.00 | 0.00 | 0.00 | 72 | 1010.6 |
| 20260510025042 | 18 | 221 | 8.0 | 20.9 | 0.00 | 0.00 | 0.00 | 71 | 1010.6 |
| 20260510024544 | 18 | 240 | 9.7 | 20.9 | 0.00 | 0.00 | 0.00 | 71 | 1010.5 |
| 20260510024040 | 18 | 210 | 9.7 | 17.7 | 0.00 | 0.00 | 0.00 | 71 | 1010.5 |
| 20260510023540 | 18 | 250 | 9.7 | 17.7 | 0.00 | 0.00 | 0.00 | 71 | 1010.3 |
| 20260510023040 | 18 | 228 | 9.7 | 17.7 | 0.00 | 0.00 | 0.00 | 71 | 1010.3 |
| 20260510022537 | 18 | 234 | 8.0 | 16.1 | 0.00 | 0.00 | 0.00 | 71 | 1010.2 |
| 20260510022036 | 18 | 236 | 9.7 | 16.1 | 0.00 | 0.00 | 0.00 | 71 | 1010.1 |
| 20260510021538 | 18 | 219 | 8.0 | 14.5 | 0.00 | 0.00 | 0.00 | 70 | 1010.0 |
| 20260510021034 | 18 | 224 | 6.4 | 14.5 | 0.00 | 0.00 | 0.00 | 70 | 1009.9 |
| 20260510020534 | 18 | 209 | 9.7 | 12.9 | 0.00 | 0.00 | 0.00 | 70 | 1009.9 |
| 20260510020033 | 18 | 221 | 8.0 | 14.5 | 0.00 | 0.00 | 0.00 | 69 | 1009.8 |
| 20260510015532 | 18 | 238 | 8.0 | 14.5 | 0.00 | 0.00 | 0.00 | 69 | 1009.8 |
| 20260510015036 | 18 | 219 | 8.0 | 16.1 | 0.00 | 0.00 | 0.00 | 69 | 1009.7 |
| 20260510014534 | 18 | 225 | 9.7 | 16.1 | 0.00 | 0.00 | 0.00 | 68 | 1009.6 |
| 20260510014032 | 18 | 211 | 6.4 | 14.5 | 0.00 | 0.00 | 0.00 | 69 | 1009.5 |
| 20260510013532 | 18 | 265 | 8.0 | 14.5 | 0.00 | 0.00 | 0.00 | 69 | 1009.4 |
| 20260510013039 | 18 | 215 | 4.8 | 16.1 | 0.00 | 0.00 | 0.00 | 68 | 1009.4 |
| 20260510012530 | 18 | 220 | 8.0 | 16.1 | 0.00 | 0.00 | 0.00 | 68 | 1009.3 |
| 20260510012030 | 18 | 206 | 8.0 | 12.9 | 0.00 | 0.00 | 0.00 | 68 | 1009.2 |
| 20260510011530 | 18 | 229 | 8.0 | 14.5 | 0.00 | 0.00 | 0.00 | 68 | 1009.1 |
| 20260510011030 | 18 | 223 | 6.4 | 14.5 | 0.00 | 0.00 | 0.00 | 68 | 1009.1 |
| 20260510010529 | 19 | 232 | 6.4 | 8.0 | 0.00 | 0.00 | 0.00 | 68 | 1009.1 |
| 20260510010030 | 19 | 217 | 1.6 | 11.3 | 0.00 | 0.00 | 0.00 | 68 | 1009.0 |
| 20260510005529 | 19 | 205 | 6.4 | 14.5 | 0.00 | 0.00 | 0.00 | 67 | 1009.0 |
| 20260510005030 | 19 | 229 | 6.4 | 14.5 | 0.00 | 0.00 | 0.00 | 67 | 1008.9 |
| 20260510004529 | 19 | 206 | 8.0 | 11.3 | 0.00 | 0.00 | 0.00 | 66 | 1008.9 |
| 20260510004030 | 20 | 244 | 6.4 | 11.3 | 0.00 | 0.00 | 0.00 | 66 | 1008.8 |
| 20260510003528 | 20 | 214 | 4.8 | 14.5 | 0.00 | 0.00 | 0.00 | 65 | 1008.8 |
| 20260510003030 | 20 | 234 | 8.0 | 14.5 | 0.00 | 0.00 | 0.00 | 65 | 1008.7 |
| 20260510002525 | 20 | 231 | 6.4 | 12.9 | 0.00 | 0.00 | 0.00 | 65 | 1008.6 |
| 20260510002025 | 20 | 198 | 8.0 | 12.9 | 0.00 | 0.00 | 0.00 | 64 | 1008.5 |
| 20260510001536 | 20 | 237 | 6.4 | 14.5 | 0.00 | 0.00 | 0.00 | 64 | 1008.4 |
| 20260510001025 | 20 | 212 | 6.4 | 17.7 | 0.00 | 0.00 | 0.00 | 64 | 1008.5 |
| 20260510000525 | 20 | 211 | 9.7 | 17.7 | 0.00 | 0.00 | 0.00 | 63 | 1008.3 |
| 20260510000025 | 21 | 188 | 8.0 | 14.5 | 0.00 | 0.00 | 0.00 | 63 | 1008.4 |
| 20260509235524 | 21 | 211 | 4.8 | 16.1 | 0.00 | 0.00 | 0.00 | 62 | 1008.4 |
| 20260509235032 | 21 | 238 | 9.7 | 16.1 | 0.00 | 0.00 | 0.00 | 62 | 1008.3 |
| 20260509234524 | 21 | 241 | 8.0 | 14.5 | 0.00 | 0.00 | 0.00 | 62 | 1008.3 |
| 20260509234027 | 21 | 226 | 8.0 | 16.1 | 0.00 | 0.00 | 0.00 | 62 | 1008.3 |
| 20260509233523 | 21 | 224 | 8.0 | 17.7 | 0.00 | 0.00 | 0.00 | 61 | 1008.4 |
| 20260509233023 | 21 | 262 | 9.7 | 17.7 | 0.00 | 0.00 | 0.00 | 61 | 1008.3 |
| 20260509232526 | 21 | 236 | 9.7 | 24.1 | 0.00 | 0.00 | 0.00 | 61 | 1008.2 |
| 20260509232523 | 21 | 221 | 9.7 | 24.1 | 0.00 | 0.00 | 0.00 | 61 | 1008.2 |
| 20260509232021 | 21 | 216 | 8.0 | 24.1 | 0.00 | 0.00 | 0.00 | 61 | 1008.2 |
| 20260509231521 | 21 | 261 | 9.7 | 24.1 | 0.00 | 0.00 | 0.00 | 61 | 1008.2 |